STARLINK-11502, 62474

Orbit data source: Space-Track

STARLINK-11502, 62474 is a payload satellite owned by SpaceX/Seattle (US) in LEO that was launched on Tue, 31 Dec 2024 UTC via an FALCON 9 launch vehicle from the Air Force Eastern Test Range (AFETR). Payloads include a variety of satellites, spacecraft, and rockets equipped with specific instruments for various scientific and technological missions. These include communications satellites like Starlink; space stations such as the ISS; scientific satellites like the Hubble; Earth observation satellites from companies like Planet Labs, Umbra, and HawkEye 360; GPS; miniature CubeSats for education and research; and military/defense satellites.

Loading next visibility...
STARLINK-11502 details
Identifier
62474, 2024-254N
Orbit
LEO
Last TLE update6 hours ago
Origin
Flag of USSpaceX/Seattle (US)
ManufacturerSpaceX/Seattle
MissionOperational spacecraft
Bus & MotorSTARLINK V2M, Unknown motor
Mass730 kg wet, ~700 kg dry
Launch date (UTC)
2024-12-31 (4 weeks ago)
Launch vehicle
FALCON 9
Launch site
Air Force Eastern Test Range (AFETR)
Object type
Payload
Rocket body
Debris
Shape & HBRUnknown
Radar Cross SectionLarge (>1 m²)

Expand to show TLE details & history

TLE from 6 hours ago
0 STARLINK-11502
1 62474U 24254N   25025.56353861  .00020777  00000-0  90318-4 0  9999
2 62474  42.9920 164.8147 0001723 264.1389  95.9287 15.84389405  5190
Epoch: 2025-01-25T13:31Z
Definitive object data (Epoch: 2025-01-25T13:31:29.735Z)
Latitude-0.00004°
Longitude-163.1698°
Altitude317.933 km
Speed7.719 km/s
True Right ascension10h 59m 15s
True Declination0° 00' 00"
Sunlit
Object was in full shadow at TLE epoch
Visualization TLE readout
Latitude-43.13561°
Longitude103.35177°
Altitude330.159 km
Speed7.711 km/s
Apparent Right ascension06h 38m 49s
Apparent Declination-45° 02' 24"
Sunlit
Object is in daylight
Visualization observer readout
Local Sidereal Time20:32:24
Azimuth113.176° SE
Elevation-68.56°
Doppler factor1
Orbital elements
Apogee altitude321.193 km
Perigee altitude318.885 km
Semi-major axis6,698.176 km
Eccentricity0.0001723
Inclination42.992°
RAAN164.8147°
Arg. of periapsis264.1389°
True anomaly95.94834°
Mean anomaly95.9287°
Eccentric anomaly95.93852°
Mean motion3.95921 °/min
BSTAR0.000090318
Orbital period90.93 mins
Loading maneuver chart data...
Loading historical data...
Loading historical data...
Loading historical data...
Loading historical data...
Loading historical data...
Loading historical data...
Loading historical data...

STARLINK-11502 Visibility forecast

Observer location: undefined°, undefined

Span
Click to sort rows by Start time (UTC) header in descending order
Start Az.
Max El. time (UTC)
Max El. Az.
Max El.
End time (UTC)
End Az.
4 mins2025-01-26 12:26:30.486Z208.161° SW2025-01-26 12:28:30.486Z134.817° SE26.604°2025-01-26 12:30:30.486Z87.508° E
4 mins2025-01-26 17:12:30.486Z279.137° WNW2025-01-26 17:14:30.486Z156.448° SSE38.652°2025-01-26 17:16:30.486Z121.352° SE
|